Home > Weather > Melle > Past weeks

Flag for Germany Weather for the Past 2 Weeks in Melle, Lower Saxony, Germany

Now
57 °F

Passing clouds.


Feels Like: 54 °F
Forecast: 37 / 58 °F
Wind: 14 mph from Northwest

Location: Muenster / Osnabrueck

Current Time: May 3, 2016 at 7:28:09 PM

Latest Report: May 3, 2016 at 6:50 PM


Visibility: N/A

Pressure: 30.24 "Hg

Humidity: 39%

Dew Point: 32 °F

Location of MelleLocation

Historic Weather in Melle — Graph

°F

Melle Temperature Yesterday

Maximum temperature yesterday: 66 °F (at 2:50 PM)
Minimum temperature yesterday: 37 °F (at 3:50 AM)
Average temperature yesterday: 54 °F

High & Low Weather Summary for the Past Weeks

 TemperatureHumidityPressure
High66 °F (May 2, 2:50 PM)100% (Apr 20, 4:20 AM)30.48 "Hg (Apr 20, 4:20 AM)
Low32 °F (Apr 20, 5:20 AM)31% (Apr 21, 6:20 PM)29.42 "Hg (Apr 26, 8:20 AM)
Average45 °F72%30.02 "Hg
* Reported Apr 18 6:20 PM — May 3 6:20 PM, Melle, Weather by CustomWeather, © 2016

Note: Actual official high and low records may vary slightly from our data, if they occured in-between our weather recording intervals... More about our weather records

Advertising

Melle Weather History for the Previous 24 Hours

Scroll right to see more
 ConditionsComfort  
Time TempWeatherWind HumidityBarometerVisibility
6:20 PM
Tue, May 3
57 °FPassing clouds.14 mph39%30.21 "HgN/A
5:50 PM57 °FPassing clouds.13 mph41%30.21 "HgN/A
5:20 PM57 °FPassing clouds.14 mph41%30.21 "HgN/A
4:50 PM57 °FPassing clouds.15 mph41%30.21 "HgN/A
4:20 PM57 °FPassing clouds.14 mph39%30.21 "HgN/A
3:50 PM57 °FPassing clouds.16 mph39%30.18 "HgN/A
3:20 PM59 °FPassing clouds.16 mph42%30.18 "HgN/A
2:50 PM57 °FPassing clouds.15 mph48%30.18 "HgN/A
2:20 PM54 °FSprinkles. Scattered clouds.15 mph63%30.18 "HgN/A
1:20 PM54 °FScattered clouds.9 mph63%30.18 "HgN/A
12:50 PM54 °FSprinkles. Scattered clouds.16 mph54%30.15 "HgN/A
12:20 PM55 °FScattered clouds.16 mph47%30.15 "HgN/A
11:50 AM55 °FScattered clouds.12 mph63%30.15 "HgN/A
11:20 AM54 °FScattered clouds.14 mph63%30.15 "HgN/A
10:50 AM52 °FScattered clouds.10 mph77%30.15 "HgN/A
10:20 AM52 °FScattered clouds.9 mph82%30.12 "HgN/A
9:50 AM48 °FBroken clouds.13 mph82%30.12 "HgN/A
9:20 AM48 °FBroken clouds.9 mph87%30.12 "HgN/A
8:50 AM48 °FPartly sunny.7 mph87%30.09 "HgN/A
8:20 AM48 °FPartly sunny.7 mph87%30.09 "HgN/A
7:20 AM48 °FLight rain. Partly sunny.9 mph87%30.07 "HgN/A
6:50 AM48 °FLight rain. Passing clouds.10 mph87%30.07 "HgN/A
6:20 AM54 °FLight rain. Mostly cloudy.5 mph82%30.04 "HgN/A
5:50 AM54 °FMostly cloudy.5 mph82%30.04 "HgN/A
5:20 AM54 °FPartly cloudy.5 mph82%30.04 "HgN/A
4:50 AM54 °FPartly cloudy.5 mph77%30.04 "HgN/A
4:20 AM54 °FLight rain. Passing clouds.5 mph72%30.04 "HgN/A
3:20 AM54 °FPassing clouds.3 mph67%30.04 "HgN/A
2:20 AM54 °FClear.5 mph67%30.07 "Hg10 mi
1:50 AM55 °FClear.6 mph63%30.07 "Hg10 mi
1:20 AM55 °FClear.5 mph67%30.07 "Hg10 mi
12:50 AM55 °FClear.5 mph67%30.07 "Hg10 mi
12:20 AM52 °FClear.1 mph77%30.07 "Hg10 mi
11:50 PM
Mon, May 2
52 °FClear.1 mph77%30.07 "Hg10 mi
11:20 PM52 °FClear.2 mph77%30.07 "Hg10 mi
10:50 PM54 °FClear.3 mph72%30.07 "Hg10 mi
10:20 PM55 °FClear.2 mph63%30.09 "Hg10 mi
9:50 PM55 °FSunny.2 mph67%30.09 "Hg10 mi
9:20 PM59 °FSunny.3 mph59%30.09 "Hg10 mi
8:50 PM59 °FSunny.5 mph55%30.09 "Hg10 mi
8:20 PM61 °FPassing clouds.3 mph55%30.09 "HgN/A
7:50 PM63 °FSunny.5 mph52%30.09 "Hg10 mi
7:20 PM64 °FPassing clouds.5 mph43%30.09 "HgN/A
Weather by CustomWeather, © 2016

See weather overviewHow to use our weather pages